QPF
0.00 0.00 0.02 0.02 0.02 0.02 0.01 0.01 0.01 0.01 0.01 0.01 0.01 0.00 0.00 0.00 0.00 0.00 0.00 0.00 0.00 0.00 0.00 0.00 0.00 0.00 0.00 0.00 0.00 0.00 0.00 0.01 0.02 0.03 0.06 0.09 0.11 0.16 0.21 0.19 0.12 0.08 0.06
0.00 0.00 0.02 0.04 0.04 0.04 0.02 0.01 0.01 0.01 0.00 0.00 0.00 0.00 0.00 0.00 0.00 0.00 0.00 0.00 0.00 0.00 0.00 0.00 0.00 0.00 0.00 0.00 0.00 0.01 0.01 0.01 0.03 0.07 0.10 0.10 0.11 0.16 0.18 0.15 0.12 0.07 0.04
0.00 0.00 0.01 0.03 0.05 0.05 0.03 0.02 0.01 0.01 0.00 0.00 0.00 0.00 0.00 0.00 0.00 0.00 0.00 0.00 0.00 0.00 0.00 0.00 0.00 0.00 0.00 0.00 0.01 0.01 0.01 0.02 0.04 0.08 0.11 0.13 0.08 0.13 0.16 0.13 0.11 0.06 0.04
0.00 0.00 0.00 0.02 0.05 0.05 0.04 0.03 0.02 0.01 0.00 0.00 0.00 0.00 0.00 0.00 0.00 0.00 0.00 0.00 0.00 0.00 0.00 0.00 0.00 0.00 0.00 0.01 0.01 0.01 0.02 0.02 0.04 0.05 0.07 0.07 0.06 0.08 0.11 0.10 0.09 0.06 0.04
0.00 0.00 0.01 0.02 0.03 0.04 0.05 0.04 0.03 0.01 0.01 0.00 0.00 0.00 0.00 0.00 0.00 0.00 0.00 0.00 0.00 0.00 0.00 0.00 0.00 0.00 0.00 0.01 0.01 0.02 0.02 0.03 0.02 0.02 0.04 0.08 0.11 0.08 0.06 0.07 0.08 0.06 0.04
0.00 0.00 0.01 0.03 0.03 0.04 0.04 0.04 0.04 0.02 0.01 0.01 0.01 0.01 0.01 0.00 0.00 0.00 0.01 0.01 0.00 0.01 0.01 0.01 0.00 0.00 0.00 0.01 0.01 0.02 0.03 0.02 0.02 0.01 0.02 0.07 0.08 0.09 0.07 0.07 0.06 0.04 0.03
0.00 0.00 0.01 0.04 0.05 0.05 0.05 0.05 0.04 0.02 0.02 0.01 0.01 0.01 0.01 0.00 0.01 0.01 0.01 0.01 0.01 0.01 0.01 0.01 0.01 0.00 0.00 0.00 0.01 0.02 0.04 0.03 0.02 0.01 0.01 0.05 0.06 0.07 0.11 0.10 0.07 0.04 0.04
0.01 0.01 0.01 0.05 0.07 0.07 0.06 0.06 0.05 0.03 0.02 0.01 0.01 0.01 0.01 0.01 0.01 0.01 0.02 0.02 0.02 0.02 0.01 0.01 0.01 0.01 0.00 0.01 0.01 0.01 0.03 0.04 0.01 0.01 0.01 0.03 0.04 0.06 0.09 0.09 0.07 0.05 0.04
0.01 0.01 0.02 0.02 0.04 0.06 0.07 0.07 0.05 0.03 0.02 0.02 0.02 0.02 0.02 0.02 0.02 0.02 0.02 0.03 0.04 0.03 0.02 0.02 0.02 0.02 0.01 0.01 0.01 0.02 0.03 0.05 0.04 0.02 0.01 0.03 0.03 0.05 0.06 0.06 0.06 0.04 0.03
0.03 0.02 0.02 0.02 0.03 0.03 0.04 0.05 0.05 0.03 0.03 0.03 0.02 0.01 0.01 0.03 0.03 0.03 0.04 0.04 0.03 0.02 0.03 0.04 0.04 0.04 0.04 0.03 0.01 0.02 0.02 0.04 0.05 0.04 0.03 0.03 0.03 0.06 0.06 0.05 0.06 0.05 0.03
0.04 0.04 0.04 0.04 0.04 0.04 0.03 0.03 0.04 0.03 0.03 0.03 0.02 0.02 0.02 0.04 0.06 0.06 0.05 0.05 0.05 0.06 0.07 0.08 0.08 0.07 0.05 0.04 0.02 0.01 0.01 0.02 0.03 0.04 0.05 0.03 0.04 0.07 0.07 0.05 0.06 0.06 0.05
0.03 0.04 0.05 0.05 0.04 0.03 0.04 0.05 0.06 0.04 0.04 0.04 0.04 0.03 0.04 0.05 0.07 0.05 0.06 0.06 0.07 0.12 0.13 0.12 0.08 0.07 0.07 0.08 0.05 0.02 0.02 0.01 0.01 0.03 0.04 0.03 0.05 0.10 0.12 0.10 0.07 0.07 0.07
0.06 0.05 0.03 0.04 0.04 0.03 0.06 0.06 0.06 0.05 0.05 0.04 0.04 0.03 0.04 0.04 0.04 0.04 0.06 0.06 0.09 0.11 0.16 0.16 0.10 0.09 0.10 0.10 0.08 0.05 0.03 0.02 0.01 0.01 0.03 0.03 0.05 0.10 0.15 0.13 0.12 0.11 0.10
0.07 0.06 0.04 0.04 0.04 0.05 0.05 0.06 0.07 0.05 0.04 0.04 0.04 0.03 0.03 0.02 0.02 0.02 0.04 0.05 0.07 0.10 0.14 0.15 0.14 0.13 0.11 0.08 0.06 0.06 0.04 0.03 0.03 0.02 0.04 0.04 0.05 0.09 0.14 0.15 0.13 0.12 0.12
0.07 0.08 0.06 0.05 0.07 0.08 0.08 0.08 0.06 0.04 0.04 0.04 0.03 0.03 0.01 0.00 0.00 0.00 0.01 0.02 0.03 0.04 0.06 0.09 0.11 0.11 0.10 0.09 0.07 0.07 0.07 0.04 0.04 0.03 0.03 0.04 0.04 0.06 0.11 0.14 0.14 0.12 0.12
0.11 0.10 0.10 0.09 0.11 0.11 0.10 0.09 0.06 0.04 0.03 0.02 0.02 0.01 0.00 0.00 0.00 0.00 0.00 0.01 0.01 0.02 0.03 0.05 0.07 0.08 0.08 0.08 0.07 0.07 0.06 0.07 0.08 0.07 0.05 0.04 0.03 0.04 0.06 0.11 0.14 0.15 0.13
0.19 0.14 0.14 0.13 0.12 0.12 0.11 0.08 0.05 0.04 0.03 0.02 0.01 0.00 0.00 0.00 0.00 0.00 0.01 0.01 0.01 0.01 0.02 0.03 0.04 0.06 0.06 0.06 0.07 0.07 0.07 0.06 0.06 0.05 0.04 0.04 0.03 0.03 0.05 0.07 0.08 0.12 0.12
0.23 0.20 0.16 0.14 0.13 0.12 0.11 0.07 0.05 0.04 0.02 0.01 0.00 0.00 0.00 0.00 0.00 0.01 0.01 0.01 0.01 0.01 0.01 0.02 0.03 0.02 0.03 0.04 0.04 0.04 0.04 0.06 0.06 0.06 0.06 0.05 0.03 0.02 0.03 0.05 0.07 0.08 0.10
0.22 0.22 0.17 0.17 0.17 0.13 0.09 0.07 0.05 0.02 0.01 0.00 0.00 0.00 0.00 0.00 0.00 0.01 0.01 0.01 0.01 0.01 0.01 0.01 0.01 0.01 0.01 0.01 0.01 0.01 0.01 0.02 0.02 0.02 0.02 0.03 0.04 0.04 0.04 0.05 0.04 0.06 0.07
0.20 0.21 0.18 0.15 0.15 0.09 0.05 0.03 0.02 0.01 0.01 0.00 0.00 0.00 0.00 0.00 0.00 0.00 0.00 0.00 0.00 0.00 0.01 0.01 0.01 0.01 0.00 0.00 0.00 0.00 0.00 0.01 0.01 0.01 0.01 0.01 0.02 0.02 0.03 0.04 0.05 0.04 0.04
0.22 0.20 0.16 0.12 0.08 0.04 0.02 0.01 0.01 0.01 0.01 0.00 0.00 0.00 0.00 0.00 0.00 0.00 0.00 0.00 0.00 0.00 0.00 0.00 0.00 0.00 0.00 0.00 0.00 0.00 0.00 0.00 0.00 0.00 0.01 0.01 0.02 0.02 0.03 0.04 0.05 0.07 0.06
0.18 0.18 0.14 0.11 0.06 0.03 0.02 0.01 0.01 0.01 0.01 0.00 0.00 0.00 0.00 0.00 0.00 0.00 0.00 0.00 0.00 0.00 0.00 0.00 0.00 0.00 0.00 0.00 0.00 0.00 0.00 0.00 0.00 0.00 0.00 0.00 0.01 0.01 0.02 0.03 0.04 0.06 0.06
0.13 0.14 0.11 0.08 0.05 0.03 0.01 0.01 0.00 0.00 0.00 0.00 0.00 0.00 0.00 0.00 0.00 0.00 0.00 0.00 0.00 0.00 0.00 0.00 0.00 0.00 0.00 0.00 0.00 0.00 0.00 0.00 0.00 0.00 0.00 0.00 0.00 0.00 0.01 0.01 0.02 0.03 0.04
0.09 0.09 0.08 0.05 0.04 0.02 0.01 0.01 0.00 0.00 0.00 0.00 0.00 0.00 0.00 0.00 0.00 0.00 0.00 0.00 0.00 0.00 0.00 0.00 0.00 0.00 0.00 0.00 0.00 0.00 0.00 0.00 0.00 0.00 0.00 0.00 0.00 0.00 0.00 0.00 0.01 0.02 0.03
0.07 0.07 0.06 0.04 0.02 0.01 0.01 0.01 0.01 0.00 0.00 0.00 0.00 0.00 0.00 0.00 0.00 0.00 0.00 0.00 0.00 0.00 0.00 0.00 0.00 0.00 0.00 0.00 0.00 0.00 0.00 0.00 0.00 0.00 0.00 0.00 0.00 0.00 0.00 0.00 0.00 0.01 0.01
0.04 0.04 0.04 0.03 0.02 0.01 0.01 0.00 0.00 0.00 0.00 0.00 0.00 0.00 0.00 0.00 0.00 0.00 0.00 0.00 0.00 0.00 0.00 0.00 0.00 0.00 0.00 0.00 0.00 0.00 0.00 0.00 0.00 0.00 0.00 0.00 0.00 0.00 0.00 0.00 0.00 0.00 0.00
MSLP
1012.30 1012.45 1012.78 1013.23 1013.72 1014.17 1014.52 1014.74 1014.84 1014.88 1014.92 1015.03 1015.24 1015.57 1015.97 1016.40 1016.80 1017.10 1017.28 1017.33 1017.30 1017.23 1017.16 1017.14 1017.17 1017.25 1017.35 1017.43 1017.46 1017.44 1017.36 1017.26 1017.17 1017.13 1017.15 1017.25 1017.41 1017.61 1017.83 1018.04 1018.23 1018.38 1018.53
1011.95 1012.25 1012.72 1013.30 1013.89 1014.41 1014.79 1015.01 1015.10 1015.11 1015.12 1015.20 1015.40 1015.72 1016.14 1016.58 1016.98 1017.28 1017.45 1017.49 1017.44 1017.35 1017.28 1017.25 1017.29 1017.38 1017.49 1017.57 1017.60 1017.56 1017.47 1017.35 1017.26 1017.22 1017.26 1017.39 1017.59 1017.84 1018.09 1018.32 1018.53 1018.69 1018.84
1011.57 1012.01 1012.62 1013.32 1014.01 1014.60 1015.04 1015.29 1015.39 1015.39 1015.39 1015.46 1015.64 1015.94 1016.33 1016.75 1017.13 1017.40 1017.55 1017.58 1017.52 1017.44 1017.38 1017.38 1017.44 1017.55 1017.66 1017.74 1017.74 1017.68 1017.56 1017.42 1017.32 1017.28 1017.34 1017.50 1017.73 1018.01 1018.29 1018.55 1018.77 1018.95 1019.09
1011.23 1011.78 1012.49 1013.30 1014.08 1014.75 1015.24 1015.54 1015.67 1015.70 1015.70 1015.77 1015.93 1016.20 1016.55 1016.92 1017.25 1017.49 1017.61 1017.63 1017.59 1017.54 1017.52 1017.56 1017.66 1017.78 1017.90 1017.96 1017.93 1017.83 1017.67 1017.50 1017.37 1017.33 1017.41 1017.59 1017.85 1018.16 1018.47 1018.75 1018.98 1019.17 1019.33
1010.99 1011.60 1012.39 1013.26 1014.11 1014.84 1015.39 1015.74 1015.92 1015.98 1016.01 1016.08 1016.23 1016.47 1016.77 1017.09 1017.36 1017.56 1017.66 1017.69 1017.67 1017.67 1017.70 1017.80 1017.94 1018.09 1018.20 1018.23 1018.17 1018.01 1017.80 1017.60 1017.45 1017.40 1017.49 1017.69 1017.99 1018.32 1018.66 1018.95 1019.20 1019.40 1019.56
1010.91 1011.54 1012.34 1013.24 1014.11 1014.88 1015.47 1015.86 1016.09 1016.20 1016.26 1016.35 1016.50 1016.71 1016.98 1017.24 1017.47 1017.64 1017.72 1017.76 1017.78 1017.83 1017.93 1018.08 1018.26 1018.43 1018.53 1018.54 1018.42 1018.22 1017.96 1017.72 1017.55 1017.51 1017.61 1017.84 1018.16 1018.53 1018.88 1019.20 1019.45 1019.65 1019.82
1011.01 1011.62 1012.39 1013.26 1014.12 1014.88 1015.49 1015.91 1016.18 1016.33 1016.44 1016.55 1016.71 1016.92 1017.15 1017.38 1017.57 1017.71 1017.79 1017.84 1017.89 1017.99 1018.15 1018.35 1018.57 1018.75 1018.85 1018.82 1018.67 1018.42 1018.12 1017.85 1017.67 1017.64 1017.77 1018.03 1018.39 1018.78 1019.16 1019.49 1019.74 1019.94 1020.11
1011.30 1011.85 1012.56 1013.36 1014.16 1014.88 1015.47 1015.89 1016.19 1016.38 1016.53 1016.68 1016.86 1017.07 1017.29 1017.49 1017.65 1017.76 1017.83 1017.89 1017.97 1018.11 1018.31 1018.55 1018.80 1018.99 1019.08 1019.03 1018.85 1018.57 1018.25 1017.98 1017.81 1017.80 1017.96 1018.26 1018.65 1019.08 1019.48 1019.81 1020.07 1020.26 1020.41
1011.74 1012.21 1012.83 1013.54 1014.25 1014.90 1015.44 1015.85 1016.15 1016.37 1016.55 1016.74 1016.94 1017.16 1017.37 1017.55 1017.69 1017.77 1017.83 1017.88 1017.98 1018.13 1018.36 1018.62 1018.88 1019.08 1019.17 1019.12 1018.93 1018.64 1018.33 1018.07 1017.93 1017.95 1018.15 1018.49 1018.92 1019.38 1019.80 1020.14 1020.40 1020.57 1020.70
1012.27 1012.66 1013.19 1013.80 1014.41 1014.97 1015.44 1015.82 1016.10 1016.33 1016.54 1016.75 1016.98 1017.21 1017.41 1017.58 1017.69 1017.74 1017.77 1017.81 1017.89 1018.04 1018.26 1018.53 1018.80 1019.01 1019.10 1019.06 1018.89 1018.63 1018.35 1018.12 1018.01 1018.08 1018.32 1018.70 1019.16 1019.64 1020.08 1020.44 1020.69 1020.85 1020.96
1012.80 1013.14 1013.59 1014.11 1014.62 1015.10 1015.50 1015.82 1016.08 1016.31 1016.54 1016.77 1017.01 1017.24 1017.44 1017.58 1017.66 1017.68 1017.66 1017.66 1017.71 1017.84 1018.05 1018.31 1018.57 1018.79 1018.90 1018.89 1018.76 1018.54 1018.30 1018.12 1018.06 1018.16 1018.43 1018.84 1019.33 1019.83 1020.28 1020.64 1020.90 1021.06 1021.15
1013.27 1013.59 1014.00 1014.44 1014.88 1015.28 1015.62 1015.89 1016.13 1016.35 1016.57 1016.81 1017.06 1017.28 1017.47 1017.59 1017.63 1017.60 1017.54 1017.49 1017.50 1017.58 1017.76 1018.00 1018.26 1018.48 1018.62 1018.65 1018.57 1018.40 1018.22 1018.09 1018.07 1018.20 1018.48 1018.90 1019.39 1019.90 1020.35 1020.72 1020.99 1021.16 1021.26
1013.64 1013.97 1014.36 1014.77 1015.16 1015.51 1015.80 1016.04 1016.25 1016.46 1016.68 1016.91 1017.15 1017.37 1017.54 1017.63 1017.63 1017.56 1017.45 1017.34 1017.30 1017.33 1017.46 1017.68 1017.93 1018.16 1018.33 1018.40 1018.38 1018.27 1018.14 1018.05 1018.06 1018.19 1018.47 1018.87 1019.34 1019.83 1020.29 1020.66 1020.94 1021.13 1021.25
1013.90 1014.27 1014.67 1015.07 1015.44 1015.76 1016.02 1016.24 1016.44 1016.64 1016.85 1017.09 1017.32 1017.53 1017.67 1017.73 1017.70 1017.59 1017.43 1017.28 1017.18 1017.16 1017.25 1017.43 1017.67 1017.90 1018.10 1018.21 1018.23 1018.18 1018.10 1018.04 1018.05 1018.17 1018.41 1018.77 1019.19 1019.65 1020.08 1020.46 1020.76 1020.98 1021.14
1014.06 1014.48 1014.91 1015.33 1015.70 1016.02 1016.27 1016.49 1016.69 1016.89 1017.10 1017.33 1017.56 1017.76 1017.89 1017.93 1017.87 1017.73 1017.54 1017.34 1017.20 1017.14 1017.18 1017.32 1017.53 1017.76 1017.97 1018.11 1018.17 1018.16 1018.11 1018.05 1018.05 1018.13 1018.32 1018.61 1018.97 1019.37 1019.77 1020.14 1020.45 1020.71 1020.92
1014.18 1014.63 1015.10 1015.53 1015.92 1016.25 1016.52 1016.75 1016.97 1017.18 1017.41 1017.64 1017.86 1018.05 1018.17 1018.20 1018.14 1017.99 1017.78 1017.56 1017.38 1017.28 1017.28 1017.38 1017.56 1017.77 1017.97 1018.12 1018.20 1018.21 1018.17 1018.12 1018.09 1018.12 1018.23 1018.43 1018.71 1019.04 1019.39 1019.73 1020.05 1020.34 1020.61
1014.29 1014.77 1015.25 1015.69 1016.09 1016.44 1016.74 1017.00 1017.24 1017.48 1017.73 1017.97 1018.20 1018.39 1018.51 1018.55 1018.49 1018.34 1018.13 1017.91 1017.71 1017.58 1017.54 1017.60 1017.73 1017.91 1018.09 1018.23 1018.31 1018.33 1018.29 1018.22 1018.16 1018.13 1018.17 1018.28 1018.46 1018.70 1018.99 1019.29 1019.60 1019.91 1020.22
1014.46 1014.93 1015.39 1015.83 1016.23 1016.60 1016.92 1017.22 1017.49 1017.77 1018.04 1018.30 1018.54 1018.74 1018.87 1018.92 1018.87 1018.75 1018.56 1018.34 1018.14 1018.00 1017.93 1017.94 1018.02 1018.15 1018.29 1018.40 1018.48 1018.49 1018.44 1018.36 1018.27 1018.19 1018.15 1018.18 1018.26 1018.41 1018.62 1018.87 1019.15 1019.46 1019.78
1014.71 1015.14 1015.56 1015.96 1016.35 1016.71 1017.06 1017.38 1017.70 1018.00 1018.30 1018.58 1018.84 1019.05 1019.20 1019.27 1019.25 1019.16 1019.00 1018.81 1018.62 1018.47 1018.37 1018.34 1018.37 1018.44 1018.53 1018.62 1018.67 1018.67 1018.62 1018.53 1018.42 1018.30 1018.21 1018.15 1018.15 1018.21 1018.33 1018.52 1018.75 1019.03 1019.34
1015.02 1015.39 1015.75 1016.10 1016.45 1016.80 1017.15 1017.50 1017.84 1018.18 1018.50 1018.80 1019.07 1019.29 1019.46 1019.55 1019.57 1019.51 1019.40 1019.25 1019.09 1018.94 1018.82 1018.76 1018.74 1018.76 1018.80 1018.84 1018.87 1018.86 1018.81 1018.72 1018.60 1018.47 1018.33 1018.22 1018.15 1018.12 1018.16 1018.26 1018.43 1018.66 1018.94
1015.39 1015.69 1015.97 1016.25 1016.55 1016.87 1017.21 1017.57 1017.93 1018.29 1018.63 1018.94 1019.21 1019.44 1019.62 1019.73 1019.78 1019.78 1019.71 1019.61 1019.49 1019.36 1019.24 1019.15 1019.09 1019.07 1019.06 1019.07 1019.08 1019.06 1019.02 1018.94 1018.83 1018.69 1018.53 1018.38 1018.25 1018.15 1018.11 1018.13 1018.22 1018.38 1018.61
1015.76 1015.99 1016.20 1016.41 1016.65 1016.93 1017.25 1017.60 1017.96 1018.33 1018.67 1018.98 1019.26 1019.48 1019.66 1019.80 1019.88 1019.92 1019.91 1019.86 1019.79 1019.69 1019.59 1019.50 1019.42 1019.36 1019.32 1019.30 1019.28 1019.27 1019.23 1019.17 1019.08 1018.95 1018.79 1018.62 1018.44 1018.29 1018.17 1018.11 1018.13 1018.22 1018.39
1016.06 1016.24 1016.39 1016.54 1016.73 1016.96 1017.26 1017.59 1017.95 1018.30 1018.64 1018.94 1019.20 1019.42 1019.60 1019.74 1019.85 1019.93 1019.98 1019.99 1019.97 1019.92 1019.85 1019.77 1019.69 1019.62 1019.56 1019.52 1019.50 1019.48 1019.46 1019.42 1019.35 1019.24 1019.09 1018.90 1018.70 1018.51 1018.33 1018.21 1018.16 1018.18 1018.27
1016.24 1016.40 1016.50 1016.61 1016.76 1016.96 1017.23 1017.54 1017.88 1018.22 1018.54 1018.82 1019.06 1019.26 1019.43 1019.58 1019.71 1019.83 1019.92 1020.00 1020.04 1020.05 1020.03 1019.98 1019.91 1019.84 1019.78 1019.73 1019.70 1019.69 1019.68 1019.66 1019.61 1019.52 1019.38 1019.20 1018.99 1018.77 1018.56 1018.38 1018.27 1018.23 1018.27
1016.23 1016.40 1016.50 1016.59 1016.72 1016.90 1017.15 1017.44 1017.76 1018.08 1018.38 1018.63 1018.85 1019.03 1019.19 1019.34 1019.49 1019.63 1019.78 1019.91 1020.01 1020.08 1020.11 1020.10 1020.06 1020.01 1019.96 1019.92 1019.89 1019.88 1019.88 1019.87 1019.84 1019.76 1019.64 1019.47 1019.26 1019.02 1018.79 1018.59 1018.44 1018.35 1018.34
1016.01 1016.20 1016.32 1016.43 1016.57 1016.75 1016.99 1017.27 1017.58 1017.88 1018.15 1018.38 1018.57 1018.74 1018.89 1019.03 1019.19 1019.37 1019.55 1019.73 1019.89 1020.02 1020.10 1020.14 1020.14 1020.12 1020.08 1020.06 1020.04 1020.03 1020.04 1020.04 1020.01 1019.95 1019.84 1019.68 1019.48 1019.25 1019.01 1018.79 1018.61 1018.50 1018.45
Thickness
5800 5795 5783 5781 5780 5778 5777 5776 5775 5773 5771 5769 5767 5766 5764 5763 5761 5760 5759 5758 5757 5756 5756 5756 5755 5755 5754 5753 5752 5752 5751 5751 5750 5749 5748 5747 5745 5743 5741 5740 5741 5740 5738
5803 5794 5782 5780 5778 5776 5775 5774 5773 5771 5769 5767 5765 5764 5762 5761 5759 5758 5757 5756 5755 5755 5754 5754 5753 5753 5752 5751 5751 5750 5750 5750 5749 5748 5748 5746 5744 5742 5741 5740 5740 5740 5737
5802 5793 5782 5779 5776 5774 5773 5772 5771 5769 5767 5765 5763 5762 5760 5759 5758 5756 5755 5754 5753 5752 5752 5751 5751 5750 5750 5749 5749 5748 5748 5748 5748 5748 5748 5749 5745 5741 5740 5739 5738 5737 5736
5800 5792 5784 5777 5775 5773 5771 5770 5769 5767 5765 5763 5762 5760 5758 5757 5756 5755 5753 5752 5751 5750 5749 5749 5748 5748 5747 5747 5746 5746 5746 5746 5747 5748 5751 5750 5746 5740 5739 5737 5736 5735 5735
5797 5791 5782 5776 5773 5771 5769 5768 5766 5764 5763 5761 5760 5758 5757 5755 5754 5753 5751 5750 5749 5748 5747 5746 5746 5745 5745 5744 5744 5744 5744 5744 5746 5749 5750 5747 5744 5738 5737 5736 5735 5734 5733
5794 5788 5780 5774 5772 5769 5767 5765 5764 5762 5760 5758 5757 5756 5754 5753 5752 5750 5749 5748 5747 5746 5745 5744 5743 5742 5742 5741 5741 5741 5741 5742 5745 5750 5748 5746 5743 5737 5736 5734 5733 5732 5732
5791 5787 5778 5771 5769 5767 5765 5763 5761 5759 5758 5756 5754 5753 5751 5750 5749 5748 5746 5745 5744 5743 5742 5741 5740 5739 5739 5739 5738 5739 5739 5741 5747 5747 5745 5744 5740 5735 5734 5733 5732 5731 5730
5790 5785 5776 5768 5766 5764 5762 5760 5758 5757 5755 5753 5751 5749 5748 5747 5745 5744 5743 5742 5741 5740 5739 5738 5737 5736 5736 5735 5736 5736 5737 5738 5743 5745 5744 5742 5735 5733 5732 5731 5730 5729 5728
5786 5783 5776 5770 5764 5761 5759 5757 5755 5754 5752 5750 5748 5746 5745 5744 5743 5741 5740 5739 5738 5737 5736 5735 5734 5733 5732 5732 5733 5733 5734 5737 5742 5742 5742 5739 5732 5730 5729 5728 5728 5727 5726
5781 5780 5774 5772 5767 5763 5759 5754 5752 5750 5749 5747 5745 5743 5742 5741 5740 5739 5738 5736 5735 5734 5734 5733 5732 5731 5730 5730 5730 5730 5731 5734 5741 5740 5740 5735 5729 5727 5726 5726 5725 5725 5724
5772 5773 5772 5770 5765 5763 5760 5754 5750 5747 5745 5744 5743 5740 5740 5742 5742 5739 5737 5734 5733 5732 5732 5731 5730 5729 5728 5728 5727 5728 5730 5737 5740 5739 5735 5730 5726 5724 5723 5723 5722 5722 5722
5763 5766 5766 5765 5762 5761 5758 5752 5750 5749 5745 5744 5742 5740 5740 5739 5738 5737 5734 5733 5732 5731 5730 5729 5729 5728 5728 5730 5729 5727 5733 5735 5737 5736 5733 5727 5724 5722 5721 5720 5719 5719 5719
5761 5761 5761 5760 5758 5757 5753 5750 5748 5746 5742 5741 5738 5737 5735 5735 5736 5735 5735 5733 5732 5731 5731 5729 5729 5730 5730 5730 5731 5731 5733 5735 5736 5735 5732 5725 5722 5720 5719 5718 5717 5716 5716
5756 5755 5756 5755 5753 5751 5750 5747 5744 5743 5740 5739 5734 5733 5734 5733 5732 5732 5731 5733 5732 5732 5730 5730 5728 5728 5728 5729 5729 5729 5730 5731 5733 5733 5729 5724 5721 5719 5718 5717 5715 5714 5714
5750 5750 5751 5750 5747 5744 5742 5742 5742 5739 5738 5734 5731 5729 5729 5731 5730 5730 5728 5728 5730 5730 5730 5728 5728 5727 5727 5727 5728 5728 5727 5728 5729 5729 5728 5722 5719 5718 5717 5715 5714 5713 5712
5745 5744 5745 5744 5742 5739 5738 5737 5736 5735 5731 5732 5729 5727 5725 5726 5725 5725 5725 5725 5727 5727 5727 5726 5727 5726 5726 5726 5726 5726 5725 5726 5724 5724 5726 5723 5719 5718 5716 5715 5714 5712 5711
5740 5741 5740 5739 5738 5735 5735 5734 5732 5731 5730 5729 5725 5723 5722 5722 5721 5722 5723 5723 5723 5723 5722 5723 5724 5724 5724 5725 5724 5724 5724 5723 5724 5722 5723 5723 5721 5718 5716 5714 5713 5711 5710
5736 5736 5736 5737 5734 5732 5731 5730 5730 5729 5727 5725 5723 5721 5718 5717 5718 5718 5720 5721 5719 5721 5722 5722 5724 5724 5724 5724 5723 5724 5723 5721 5721 5720 5721 5720 5721 5721 5717 5714 5712 5710 5709
5732 5733 5732 5732 5731 5730 5728 5727 5727 5725 5723 5723 5721 5719 5716 5715 5715 5717 5717 5716 5718 5720 5720 5721 5721 5722 5722 5721 5723 5721 5723 5722 5721 5721 5721 5720 5719 5718 5718 5714 5712 5710 5709
5729 5730 5729 5729 5728 5727 5726 5725 5724 5723 5722 5721 5719 5715 5714 5714 5713 5715 5715 5713 5717 5718 5716 5716 5715 5715 5717 5717 5722 5721 5721 5721 5721 5721 5720 5721 5718 5717 5717 5716 5713 5711 5709
5725 5727 5727 5726 5726 5726 5726 5725 5723 5722 5721 5720 5718 5714 5712 5712 5712 5712 5714 5711 5713 5714 5712 5714 5714 5714 5715 5715 5717 5717 5719 5720 5720 5718 5719 5719 5719 5717 5716 5714 5713 5713 5711
5724 5725 5725 5725 5725 5726 5726 5726 5724 5723 5721 5721 5717 5713 5712 5711 5711 5712 5710 5713 5711 5710 5709 5710 5709 5713 5713 5713 5713 5714 5713 5713 5712 5716 5715 5715 5715 5715 5714 5713 5711 5709 5709
5725 5726 5727 5727 5726 5726 5725 5725 5722 5719 5719 5719 5716 5715 5713 5711 5711 5709 5709 5710 5709 5712 5710 5707 5708 5708 5711 5711 5712 5711 5710 5711 5711 5711 5709 5710 5710 5710 5712 5710 5709 5708 5707
5730 5731 5730 5728 5727 5726 5725 5725 5723 5720 5720 5720 5719 5718 5714 5712 5711 5709 5708 5707 5707 5710 5706 5709 5707 5708 5706 5710 5709 5707 5707 5707 5706 5706 5707 5709 5706 5705 5706 5707 5707 5705 5704
5735 5734 5733 5730 5728 5727 5726 5724 5722 5722 5723 5723 5720 5717 5715 5714 5712 5710 5708 5707 5706 5708 5706 5705 5704 5705 5706 5706 5706 5706 5704 5703 5704 5702 5701 5701 5704 5704 5703 5701 5702 5701 5699
5738 5737 5735 5731 5729 5727 5725 5725 5722 5722 5722 5721 5718 5718 5716 5717 5715 5712 5709 5707 5706 5707 5704 5703 5702 5702 5702 5700 5701 5702 5701 5701 5700 5699 5697 5695 5697 5699 5698 5697 5698 5696 5695